User: anonymous   Login
Location: Unspecified
(0.0000°N, 0.0000°E)
Time: 10:47:19
(UTC+00:00)
Language:

FENGMANIU-1 - Orbit

View from above orbital plane
View from above orbital plane
View from above satellite
View from above satellite

Ground track
Ground track

The orbit data is extracted from the following two-line orbital elements,

1 43192U 18015A   21017.15056647  .00002680  00000-0  10404-3 0  9997
2 43192  97.4672 152.1368 0016444  59.3414  44.3000 15.26866359164493
Epoch (UTC): 17 January 2021 03:36:48
Eccentricity: 0.0016444
inclination: 97.4672°
perigee height: 474 km
apogee height: 496 km
right ascension of ascending node: 152.1368°
argument of perigee: 59.3414°
revolutions per day: 15.26866359
mean anomaly at epoch: 44.3000°
orbit number at epoch: 16449

The dashed part of the orbit path shows where the satellite is in the earth's shadow,  

DLR